Time,TemperatureF,DewpointF,PressureIn,WindDirection,WindDirectionDegrees,WindSpeedMPH,WindSpeedGustMPH,Humidity,HourlyPrecipIn,Conditions,Clouds,dailyrainin,SoftwareType,DateUTC
2013-08-06 00:03:00,69.1,64.8,29.69,NE,45,8.0,11.0,86,0.00,,,0.04,meteohub,2013-08-06 06:03:00,
2013-08-06 00:08:00,69.3,64.9,29.69,NE,45,4.0,13.0,86,0.00,,,0.00,meteohub,2013-08-06 06:08:00,
2013-08-06 00:13:00,69.3,64.9,29.68,East,90,4.0,13.0,86,0.00,,,0.00,meteohub,2013-08-06 06:13:00,
2013-08-06 00:18:00,69.1,64.8,29.68,East,90,5.0,13.0,86,0.00,,,0.00,meteohub,2013-08-06 06:18:00,
2013-08-06 00:23:00,69.1,64.8,29.68,SE,135,3.0,9.0,86,0.00,,,0.00,meteohub,2013-08-06 06:23:00,
2013-08-06 00:28:00,69.3,64.9,29.68,East,90,5.0,8.0,86,0.00,,,0.00,meteohub,2013-08-06 06:28:00,
2013-08-06 00:33:00,69.3,64.9,29.67,East,90,8.0,8.0,86,0.00,,,0.00,meteohub,2013-08-06 06:33:00,
2013-08-06 00:38:00,69.3,64.9,29.68,East,90,3.0,5.0,86,0.00,,,0.00,meteohub,2013-08-06 06:38:00,
2013-08-06 00:43:00,69.1,65.1,29.68,East,90,4.0,8.0,87,0.00,,,0.00,meteohub,2013-08-06 06:43:00,
2013-08-06 00:48:00,69.1,65.1,29.68,East,90,8.0,10.0,87,0.00,,,0.00,meteohub,2013-08-06 06:48:00,
2013-08-06 00:53:00,69.1,65.1,29.68,East,90,7.0,10.0,87,0.00,,,0.00,meteohub,2013-08-06 06:53:00,
2013-08-06 00:58:00,69.1,65.1,29.67,NE,45,6.0,10.0,87,0.00,,,0.00,meteohub,2013-08-06 06:58:00,
2013-08-06 01:00:00,69.1,65.1,29.68,NE,45,6.0,10.0,87,0.00,,,0.00,meteohub,2013-08-06 07:00:00,
2013-08-06 01:07:00,69.3,65.5,29.67,East,90,8.0,11.0,88,0.00,,,0.00,meteohub,2013-08-06 07:07:00,
2013-08-06 01:12:00,69.3,65.8,29.67,NE,45,5.0,13.0,89,0.00,,,0.00,meteohub,2013-08-06 07:12:00,
2013-08-06 01:17:00,69.3,65.8,29.67,SE,135,8.0,15.0,89,0.00,,,0.00,meteohub,2013-08-06 07:17:00,
2013-08-06 01:22:00,69.3,65.8,29.65,NE,45,11.0,15.0,89,0.00,,,0.00,meteohub,2013-08-06 07:22:00,
2013-08-06 01:27:00,69.3,65.8,29.67,NE,45,12.0,13.0,89,0.00,,,0.00,meteohub,2013-08-06 07:27:00,
2013-08-06 01:32:00,69.3,65.8,29.67,NE,45,10.0,15.0,89,0.00,,,0.00,meteohub,2013-08-06 07:32:00,
2013-08-06 01:37:00,69.1,66.0,29.67,East,90,6.0,15.0,90,0.00,,,0.00,meteohub,2013-08-06 07:37:00,
2013-08-06 01:42:00,68.9,65.8,29.67,East,90,8.0,15.0,90,0.00,,,0.00,meteohub,2013-08-06 07:42:00,
2013-08-06 01:47:00,68.9,65.8,29.67,East,90,2.0,12.0,90,0.00,,,0.00,meteohub,2013-08-06 07:47:00,
2013-08-06 01:52:00,68.7,65.3,29.66,SE,135,3.0,9.0,89,0.00,,,0.00,meteohub,2013-08-06 07:52:00,
2013-08-06 01:57:00,68.7,65.3,29.66,NE,45,4.0,8.0,89,0.00,,,0.00,meteohub,2013-08-06 07:57:00,
2013-08-06 02:02:00,68.7,65.7,29.65,NE,45,5.0,7.0,90,0.00,,,0.00,meteohub,2013-08-06 08:02:00,
2013-08-06 02:07:00,68.7,65.3,29.66,East,90,4.0,7.0,89,0.00,,,0.00,meteohub,2013-08-06 08:07:00,
2013-08-06 02:12:00,68.7,65.3,29.66,NE,45,9.0,9.0,89,0.00,,,0.00,meteohub,2013-08-06 08:12:00,
2013-08-06 02:17:00,68.9,65.5,29.66,East,90,4.0,9.0,89,0.00,,,0.00,meteohub,2013-08-06 08:17:00,
2013-08-06 02:22:00,68.9,65.5,29.66,NE,45,6.0,9.0,89,0.00,,,0.00,meteohub,2013-08-06 08:22:00,
2013-08-06 02:27:00,68.9,65.5,29.66,NE,45,4.0,9.0,89,0.00,,,0.00,meteohub,2013-08-06 08:27:00,
2013-08-06 02:32:00,68.9,65.5,29.67,East,90,7.0,8.0,89,0.00,,,0.00,meteohub,2013-08-06 08:32:00,
2013-08-06 02:37:00,69.1,65.7,29.66,NE,45,8.0,11.0,89,0.00,,,0.00,meteohub,2013-08-06 08:37:00,
2013-08-06 02:42:00,69.3,65.8,29.66,NE,45,5.0,11.0,89,0.00,,,0.00,meteohub,2013-08-06 08:42:00,
2013-08-06 02:47:00,69.3,65.5,29.67,NE,45,6.0,11.0,88,0.00,,,0.00,meteohub,2013-08-06 08:47:00,
2013-08-06 02:52:00,69.4,65.7,29.67,East,90,6.0,11.0,88,0.00,,,0.00,meteohub,2013-08-06 08:52:00,
2013-08-06 02:57:00,69.4,65.7,29.68,NE,45,10.0,11.0,88,0.00,,,0.00,meteohub,2013-08-06 08:57:00,
2013-08-06 03:02:00,69.4,65.7,29.67,NE,45,4.0,14.0,88,0.00,,,0.00,meteohub,2013-08-06 09:02:00,
2013-08-06 03:07:00,69.4,66.0,29.67,NE,45,5.0,14.0,89,0.00,,,0.00,meteohub,2013-08-06 09:07:00,
2013-08-06 03:12:00,69.3,65.8,29.67,NE,45,3.0,11.0,89,0.00,,,0.00,meteohub,2013-08-06 09:12:00,
2013-08-06 03:17:00,69.3,65.8,29.66,East,90,4.0,9.0,89,0.00,,,0.00,meteohub,2013-08-06 09:17:00,
2013-08-06 03:22:00,69.1,66.0,29.67,NE,45,7.0,9.0,90,0.00,,,0.00,meteohub,2013-08-06 09:22:00,
2013-08-06 03:27:00,69.1,66.0,29.68,SE,135,5.0,7.0,90,0.00,,,0.00,meteohub,2013-08-06 09:27:00,
2013-08-06 03:32:00,69.3,65.8,29.67,NE,45,7.0,8.0,89,0.00,,,0.00,meteohub,2013-08-06 09:32:00,
2013-08-06 03:37:00,69.4,65.7,29.67,East,90,8.0,8.0,88,0.00,,,0.00,meteohub,2013-08-06 09:37:00,
2013-08-06 03:42:00,69.4,65.5,29.68,East,90,8.0,10.0,87,0.00,,,0.00,meteohub,2013-08-06 09:42:00,
2013-08-06 03:47:00,69.4,65.1,29.68,SE,135,7.0,10.0,86,0.00,,,0.00,meteohub,2013-08-06 09:47:00,
2013-08-06 03:52:00,69.4,65.1,29.68,ESE,113,7.0,10.0,86,0.00,,,0.00,meteohub,2013-08-06 09:52:00,
2013-08-06 03:57:00,70.0,64.9,29.69,NE,45,7.0,8.0,84,0.00,,,0.00,meteohub,2013-08-06 09:57:00,
2013-08-06 04:02:00,69.8,65.1,29.68,NE,45,8.0,8.0,85,0.00,,,0.00,meteohub,2013-08-06 10:02:00,
2013-08-06 04:07:00,69.6,65.7,29.68,ESE,113,11.0,11.0,87,0.00,,,0.00,meteohub,2013-08-06 10:07:00,
2013-08-06 04:12:00,69.4,65.7,29.67,East,90,5.0,11.0,88,0.00,,,0.00,meteohub,2013-08-06 10:12:00,
2013-08-06 04:17:00,69.4,65.7,29.68,East,90,5.0,11.0,88,0.00,,,0.00,meteohub,2013-08-06 10:17:00,
2013-08-06 04:22:00,69.4,65.7,29.68,NE,45,5.0,11.0,88,0.00,,,0.00,meteohub,2013-08-06 10:22:00,
2013-08-06 04:27:00,69.6,65.8,29.69,NE,45,4.0,11.0,88,0.00,,,0.00,meteohub,2013-08-06 10:27:00,
2013-08-06 04:32:00,69.6,65.7,29.68,NE,45,8.0,11.0,87,0.00,,,0.00,meteohub,2013-08-06 10:32:00,
2013-08-06 04:37:00,69.6,65.7,29.67,East,90,10.0,11.0,87,0.00,,,0.00,meteohub,2013-08-06 10:37:00,
2013-08-06 04:42:00,69.6,65.7,29.68,East,90,8.0,13.0,87,0.00,,,0.00,meteohub,2013-08-06 10:42:00,
2013-08-06 04:47:00,69.4,65.7,29.68,NE,45,6.0,13.0,88,0.00,,,0.00,meteohub,2013-08-06 10:47:00,
2013-08-06 04:52:00,69.3,65.5,29.70,WNW,293,10.0,13.0,88,0.00,,,0.00,meteohub,2013-08-06 10:52:00,
2013-08-06 04:57:00,69.3,65.5,29.69,SE,135,7.0,14.0,88,0.00,,,0.00,meteohub,2013-08-06 10:57:00,
2013-08-06 05:02:00,69.3,65.3,29.70,East,90,8.0,14.0,87,0.00,,,0.00,meteohub,2013-08-06 11:02:00,
2013-08-06 05:08:00,69.1,65.3,29.70,East,90,11.0,13.0,88,0.00,,,0.00,meteohub,2013-08-06 11:08:00,
2013-08-06 05:13:00,69.1,65.3,29.71,East,90,4.0,13.0,88,0.00,,,0.00,meteohub,2013-08-06 11:13:00,
2013-08-06 05:18:00,69.1,65.3,29.70,South,180,6.0,12.0,88,0.00,,,0.00,meteohub,2013-08-06 11:18:00,
2013-08-06 05:23:00,69.1,65.1,29.70,East,90,4.0,11.0,87,0.00,,,0.00,meteohub,2013-08-06 11:23:00,
2013-08-06 05:28:00,69.3,64.9,29.70,NE,45,4.0,11.0,86,0.00,,,0.00,meteohub,2013-08-06 11:28:00,
2013-08-06 05:33:00,69.3,64.6,29.70,NE,45,5.0,11.0,85,0.00,,,0.00,meteohub,2013-08-06 11:33:00,
2013-08-06 05:38:00,69.4,64.4,29.70,NE,45,5.0,11.0,84,0.00,,,0.00,meteohub,2013-08-06 11:38:00,
2013-08-06 05:43:00,69.3,64.2,29.71,SE,135,3.0,11.0,84,0.00,,,0.00,meteohub,2013-08-06 11:43:00,
2013-08-06 05:48:00,69.1,64.4,29.71,East,90,7.0,11.0,85,0.00,,,0.00,meteohub,2013-08-06 11:48:00,
2013-08-06 05:53:00,69.3,64.6,29.71,East,90,1.0,8.0,85,0.00,,,0.00,meteohub,2013-08-06 11:53:00,
2013-08-06 05:58:00,69.4,64.4,29.71,NE,45,7.0,8.0,84,0.00,,,0.00,meteohub,2013-08-06 11:58:00,
2013-08-06 06:03:00,69.4,63.3,29.71,NE,45,9.0,9.0,81,0.00,,,0.00,meteohub,2013-08-06 12:03:00,
2013-08-06 06:08:00,69.3,62.1,29.72,North,0,18.0,18.0,78,0.00,,,0.00,meteohub,2013-08-06 12:08:00,
2013-08-06 06:13:00,69.1,61.9,29.72,NE,45,15.0,18.0,78,0.00,,,0.00,meteohub,2013-08-06 12:13:00,
2013-08-06 06:18:00,68.7,62.2,29.72,NE,45,17.0,18.0,80,0.00,,,0.00,meteohub,2013-08-06 12:18:00,
2013-08-06 06:23:00,68.7,61.9,29.73,NE,45,18.0,18.0,79,0.00,,,0.00,meteohub,2013-08-06 12:23:00,
2013-08-06 06:28:00,69.3,61.7,29.73,East,90,18.0,22.0,77,0.00,,,0.00,meteohub,2013-08-06 12:28:00,
2013-08-06 06:33:00,70.0,62.1,29.74,NE,45,11.0,22.0,76,0.00,,,0.00,meteohub,2013-08-06 12:33:00,
2013-08-06 06:38:00,70.2,62.6,29.74,NE,45,11.0,21.0,77,0.00,,,0.00,meteohub,2013-08-06 12:38:00,
2013-08-06 06:43:00,70.3,63.1,29.73,NE,45,16.0,21.0,78,0.00,,,0.00,meteohub,2013-08-06 12:43:00,
2013-08-06 06:48:00,70.9,63.3,29.73,NE,45,16.0,21.0,77,0.00,,,0.00,meteohub,2013-08-06 12:48:00,
2013-08-06 06:53:00,71.1,63.5,29.73,NE,45,11.0,25.0,77,0.00,,,0.00,meteohub,2013-08-06 12:53:00,
2013-08-06 06:58:00,71.8,62.6,29.73,NE,45,12.0,25.0,73,0.00,,,0.00,meteohub,2013-08-06 12:58:00,
2013-08-06 07:03:00,72.3,63.1,29.73,NE,45,22.0,25.0,73,0.00,,,0.00,meteohub,2013-08-06 13:03:00,
2013-08-06 07:08:00,71.8,63.5,29.73,NE,45,16.0,26.0,75,0.00,,,0.00,meteohub,2013-08-06 13:08:00,
2013-08-06 07:13:00,72.0,64.0,29.73,NE,45,22.0,26.0,76,0.00,,,0.00,meteohub,2013-08-06 13:13:00,
2013-08-06 07:18:00,71.6,64.0,29.73,North,0,18.0,26.0,77,0.00,,,0.00,meteohub,2013-08-06 13:18:00,
2013-08-06 07:23:00,71.6,64.0,29.74,NE,45,12.0,24.0,77,0.00,,,0.00,meteohub,2013-08-06 13:23:00,
2013-08-06 07:29:00,71.8,63.9,29.73,East,90,12.0,24.0,76,0.00,,,0.00,meteohub,2013-08-06 13:29:00,
2013-08-06 07:34:00,72.3,63.9,29.73,NE,45,17.0,23.0,75,0.00,,,0.00,meteohub,2013-08-06 13:34:00,
2013-08-06 07:39:00,72.7,64.2,29.74,NE,45,16.0,23.0,75,0.00,,,0.00,meteohub,2013-08-06 13:39:00,
2013-08-06 07:44:00,73.0,64.9,29.74,East,90,21.0,22.0,76,0.00,,,0.00,meteohub,2013-08-06 13:44:00,
2013-08-06 07:49:00,73.2,64.8,29.73,NE,45,15.0,20.0,75,0.00,,,0.00,meteohub,2013-08-06 13:49:00,
2013-08-06 07:54:00,72.9,64.8,29.73,East,90,18.0,21.0,76,0.00,,,0.00,meteohub,2013-08-06 13:54:00,
2013-08-06 07:59:00,73.0,64.9,29.72,NE,45,21.0,23.0,76,0.00,,,0.00,meteohub,2013-08-06 13:59:00,
2013-08-06 08:04:00,73.4,65.3,29.73,North,0,15.0,23.0,76,0.00,,,0.00,meteohub,2013-08-06 14:04:00,
2013-08-06 08:09:00,73.6,65.5,29.73,NE,45,20.0,23.0,76,0.00,,,0.00,meteohub,2013-08-06 14:09:00,
2013-08-06 08:14:00,73.6,65.5,29.73,East,90,19.0,22.0,76,0.00,,,0.00,meteohub,2013-08-06 14:14:00,
2013-08-06 08:19:00,73.4,65.3,29.73,NE,45,20.0,21.0,76,0.00,,,0.00,meteohub,2013-08-06 14:19:00,
2013-08-06 08:24:00,73.2,64.8,29.74,East,90,19.0,21.0,75,0.00,,,0.00,meteohub,2013-08-06 14:24:00,
2013-08-06 08:29:00,73.8,65.3,29.73,NE,45,24.0,24.0,75,0.00,,,0.00,meteohub,2013-08-06 14:29:00,
2013-08-06 08:34:00,73.2,64.8,29.73,East,90,26.0,27.0,75,0.00,,,0.00,meteohub,2013-08-06 14:34:00,
2013-08-06 08:39:00,73.2,64.8,29.73,SE,135,21.0,27.0,75,0.00,,,0.00,meteohub,2013-08-06 14:39:00,
2013-08-06 08:44:00,73.2,64.8,29.73,NE,45,21.0,27.0,75,0.00,,,0.00,meteohub,2013-08-06 14:44:00,
2013-08-06 08:49:00,73.4,65.3,29.72,NE,45,19.0,26.0,76,0.00,,,0.00,meteohub,2013-08-06 14:49:00,
2013-08-06 08:54:00,74.1,65.7,29.73,NE,45,16.0,25.0,75,0.00,,,0.00,meteohub,2013-08-06 14:54:00,
2013-08-06 08:59:00,74.5,66.0,29.72,NE,45,23.0,25.0,75,0.00,,,0.00,meteohub,2013-08-06 14:59:00,
2013-08-06 09:04:00,74.5,65.7,29.73,NE,45,20.0,24.0,74,0.00,,,0.00,meteohub,2013-08-06 15:04:00,
2013-08-06 09:09:00,74.7,65.8,29.72,NE,45,22.0,24.0,74,0.00,,,0.00,meteohub,2013-08-06 15:09:00,
2013-08-06 09:14:00,73.9,65.5,29.72,NE,45,19.0,24.0,75,0.00,,,0.00,meteohub,2013-08-06 15:14:00,
2013-08-06 09:19:00,73.6,65.1,29.72,NE,45,18.0,24.0,75,0.00,,,0.00,meteohub,2013-08-06 15:19:00,
2013-08-06 09:24:00,73.6,65.1,29.72,East,90,18.0,24.0,75,0.00,,,0.00,meteohub,2013-08-06 15:24:00,
2013-08-06 09:29:00,73.4,64.9,29.72,NE,45,21.0,24.0,75,0.00,,,0.00,meteohub,2013-08-06 15:29:00,
2013-08-06 09:34:00,73.4,64.9,29.71,NE,45,17.0,19.0,75,0.00,,,0.00,meteohub,2013-08-06 15:34:00,
2013-08-06 09:39:00,73.6,65.1,29.72,NE,45,17.0,22.0,75,0.00,,,0.00,meteohub,2013-08-06 15:39:00,
2013-08-06 09:44:00,73.9,65.5,29.71,SE,135,16.0,22.0,75,0.00,,,0.00,meteohub,2013-08-06 15:44:00,
2013-08-06 09:50:00,73.8,65.3,29.71,East,90,10.0,21.0,75,0.00,,,0.00,meteohub,2013-08-06 15:50:00,
2013-08-06 09:55:00,73.9,65.1,29.71,NE,45,17.0,22.0,74,0.00,,,0.00,meteohub,2013-08-06 15:55:00,
2013-08-06 10:00:00,73.8,64.9,29.71,ENE,68,15.0,22.0,74,0.00,,,0.00,meteohub,2013-08-06 16:00:00,
2013-08-06 10:05:00,73.8,65.3,29.70,NE,45,15.0,23.0,75,0.00,,,0.00,meteohub,2013-08-06 16:05:00,
2013-08-06 10:10:00,73.9,65.5,29.70,East,90,14.0,24.0,75,0.00,,,0.00,meteohub,2013-08-06 16:10:00,
2013-08-06 10:15:00,73.9,65.5,29.71,NE,45,15.0,24.0,75,0.00,,,0.00,meteohub,2013-08-06 16:15:00,
2013-08-06 10:20:00,73.9,65.5,29.71,NE,45,15.0,23.0,75,0.00,,,0.00,meteohub,2013-08-06 16:20:00,
2013-08-06 10:25:00,74.3,65.8,29.72,North,0,12.0,21.0,75,0.00,,,0.00,meteohub,2013-08-06 16:25:00,
2013-08-06 10:30:00,74.5,66.0,29.71,NE,45,19.0,21.0,75,0.00,,,0.00,meteohub,2013-08-06 16:30:00,
2013-08-06 10:35:00,73.9,65.1,29.72,NE,45,16.0,22.0,74,0.00,,,0.00,meteohub,2013-08-06 16:35:00,
2013-08-06 10:40:00,73.6,65.1,29.72,NE,45,14.0,22.0,75,0.00,,,0.00,meteohub,2013-08-06 16:40:00,
2013-08-06 10:45:00,73.4,65.3,29.72,SE,135,9.0,22.0,76,0.00,,,0.00,meteohub,2013-08-06 16:45:00,
2013-08-06 10:50:00,73.4,65.3,29.72,East,90,15.0,19.0,76,0.00,,,0.00,meteohub,2013-08-06 16:50:00,
2013-08-06 10:55:00,73.4,65.3,29.71,NE,45,13.0,15.0,76,0.00,,,0.00,meteohub,2013-08-06 16:55:00,
2013-08-06 11:00:00,73.4,65.3,29.72,East,90,11.0,16.0,76,0.00,,,0.00,meteohub,2013-08-06 17:00:00,
2013-08-06 11:05:00,73.8,65.7,29.70,East,90,13.0,16.0,76,0.00,,,0.00,meteohub,2013-08-06 17:05:00,
2013-08-06 11:10:00,74.3,65.8,29.71,North,0,14.0,16.0,75,0.00,,,0.00,meteohub,2013-08-06 17:10:00,
2013-08-06 11:15:00,74.8,66.4,29.71,North,0,11.0,17.0,75,0.00,,,0.00,meteohub,2013-08-06 17:15:00,
2013-08-06 11:20:00,75.0,65.3,29.70,NE,45,17.0,17.0,72,0.00,,,0.00,meteohub,2013-08-06 17:20:00,
2013-08-06 11:25:00,75.4,64.9,29.70,NE,45,17.0,21.0,70,0.00,,,0.00,meteohub,2013-08-06 17:25:00,
2013-08-06 11:27:00,75.2,64.4,29.70,East,90,14.0,21.0,69,0.00,,,0.00,meteohub,2013-08-06 17:27:00,
2013-08-06 11:32:00,74.5,64.9,29.70,East,90,8.0,21.0,72,0.00,,,0.00,meteohub,2013-08-06 17:32:00,
2013-08-06 11:37:00,74.1,64.6,29.69,East,90,12.0,18.0,72,0.00,,,0.00,meteohub,2013-08-06 17:37:00,
2013-08-06 11:42:00,74.1,64.9,29.70,NE,45,13.0,20.0,73,0.00,,,0.00,meteohub,2013-08-06 17:42:00,
2013-08-06 11:47:00,73.9,64.8,29.69,East,90,14.0,20.0,73,0.00,,,0.00,meteohub,2013-08-06 17:47:00,
2013-08-06 11:52:00,74.1,65.3,29.69,NE,45,8.0,17.0,74,0.00,,,0.00,meteohub,2013-08-06 17:52:00,
2013-08-06 11:57:00,75.6,65.8,29.68,NE,45,15.0,20.0,72,0.00,,,0.00,meteohub,2013-08-06 17:57:00,
2013-08-06 12:02:00,77.0,66.0,29.67,NE,45,12.0,20.0,69,0.00,,,0.00,meteohub,2013-08-06 18:02:00,
2013-08-06 12:07:00,78.1,65.3,29.67,NE,45,13.0,15.0,65,0.00,,,0.00,meteohub,2013-08-06 18:07:00,
2013-08-06 12:12:00,78.4,65.7,29.67,NE,45,17.0,21.0,65,0.00,,,0.00,meteohub,2013-08-06 18:12:00,
2013-08-06 12:17:00,77.4,65.5,29.66,North,0,15.0,24.0,67,0.00,,,0.00,meteohub,2013-08-06 18:17:00,
2013-08-06 12:22:00,77.0,64.8,29.65,NE,45,17.0,24.0,66,0.00,,,0.00,meteohub,2013-08-06 18:22:00,
2013-08-06 12:27:00,77.2,64.9,29.65,NE,45,16.0,24.0,66,0.00,,,0.00,meteohub,2013-08-06 18:27:00,
2013-08-06 12:32:00,77.9,65.1,29.65,NE,45,14.0,21.0,65,0.00,,,0.00,meteohub,2013-08-06 18:32:00,
2013-08-06 12:38:00,78.1,65.3,29.64,NE,45,19.0,21.0,65,0.00,,,0.00,meteohub,2013-08-06 18:38:00,
2013-08-06 12:43:00,77.9,64.8,29.64,North,0,19.0,24.0,64,0.00,,,0.00,meteohub,2013-08-06 18:43:00,
2013-08-06 12:48:00,78.4,65.3,29.63,NE,45,18.0,24.0,64,0.00,,,0.00,meteohub,2013-08-06 18:48:00,
2013-08-06 12:53:00,78.4,64.8,29.64,NE,45,17.0,24.0,63,0.00,,,0.00,meteohub,2013-08-06 18:53:00,
2013-08-06 12:58:00,77.5,64.8,29.64,NE,45,21.0,25.0,65,0.00,,,0.00,meteohub,2013-08-06 18:58:00,
2013-08-06 13:03:00,78.4,65.3,29.64,East,90,20.0,25.0,64,0.00,,,0.00,meteohub,2013-08-06 19:03:00,
2013-08-06 13:08:00,78.8,64.8,29.64,NE,45,23.0,25.0,62,0.00,,,0.00,meteohub,2013-08-06 19:08:00,
2013-08-06 13:13:00,78.3,65.1,29.62,NE,45,17.0,24.0,64,0.00,,,0.00,meteohub,2013-08-06 19:13:00,
2013-08-06 13:18:00,77.9,64.8,29.63,North,0,17.0,23.0,64,0.00,,,0.00,meteohub,2013-08-06 19:18:00,
2013-08-06 13:23:00,77.9,64.8,29.62,North,0,25.0,25.0,64,0.00,,,0.00,meteohub,2013-08-06 19:23:00,
2013-08-06 13:28:00,78.3,65.1,29.62,NE,45,18.0,26.0,64,0.00,,,0.00,meteohub,2013-08-06 19:28:00,
2013-08-06 13:33:00,77.9,64.8,29.62,East,90,26.0,26.0,64,0.00,,,0.00,meteohub,2013-08-06 19:33:00,
2013-08-06 13:38:00,78.1,64.4,29.62,NE,45,21.0,26.0,63,0.00,,,0.00,meteohub,2013-08-06 19:38:00,
2013-08-06 13:43:00,77.9,64.8,29.62,SE,135,15.0,26.0,64,0.00,,,0.00,meteohub,2013-08-06 19:43:00,
2013-08-06 13:48:00,77.7,64.6,29.62,North,0,16.0,26.0,64,0.00,,,0.00,meteohub,2013-08-06 19:48:00,
2013-08-06 13:53:00,78.3,65.1,29.62,NE,45,16.0,24.0,64,0.00,,,0.00,meteohub,2013-08-06 19:53:00,
2013-08-06 13:58:00,78.4,65.3,29.62,NE,45,23.0,23.0,64,0.00,,,0.00,meteohub,2013-08-06 19:58:00,
2013-08-06 14:03:00,77.9,65.1,29.62,North,0,25.0,25.0,65,0.00,,,0.00,meteohub,2013-08-06 20:03:00,
2013-08-06 14:08:00,78.3,65.1,29.62,NE,45,21.0,23.0,64,0.00,,,0.00,meteohub,2013-08-06 20:08:00,
2013-08-06 14:13:00,77.9,64.8,29.62,NE,45,21.0,25.0,64,0.00,,,0.00,meteohub,2013-08-06 20:13:00,
2013-08-06 14:18:00,78.6,65.5,29.62,NE,45,16.0,25.0,64,0.00,,,0.00,meteohub,2013-08-06 20:18:00,
2013-08-06 14:23:00,79.2,64.9,29.62,SW,225,11.0,25.0,62,0.00,,,0.00,meteohub,2013-08-06 20:23:00,
2013-08-06 14:28:00,79.3,65.1,29.61,NE,45,15.0,25.0,62,0.00,,,0.00,meteohub,2013-08-06 20:28:00,
2013-08-06 14:32:00,79.3,65.1,29.62,NE,45,23.0,23.0,62,0.00,,,0.00,meteohub,2013-08-06 20:32:00,
2013-08-06 14:37:00,78.8,64.8,29.62,NE,45,18.0,23.0,62,0.00,,,0.00,meteohub,2013-08-06 20:37:00,
2013-08-06 14:42:00,78.6,64.9,29.61,NE,45,18.0,23.0,63,0.00,,,0.00,meteohub,2013-08-06 20:42:00,
2013-08-06 14:47:00,78.4,64.8,29.60,NE,45,27.0,27.0,63,0.00,,,0.00,meteohub,2013-08-06 20:47:00,
2013-08-06 14:52:00,77.9,64.8,29.61,NE,45,23.0,27.0,64,0.00,,,0.00,meteohub,2013-08-06 20:52:00,
2013-08-06 14:57:00,77.7,64.0,29.61,East,90,21.0,27.0,63,0.00,,,0.00,meteohub,2013-08-06 20:57:00,
2013-08-06 15:02:00,77.9,64.8,29.60,NE,45,26.0,27.0,64,0.00,,,0.00,meteohub,2013-08-06 21:02:00,
2013-08-06 15:07:00,77.9,65.1,29.61,North,0,12.0,28.0,65,0.00,,,0.00,meteohub,2013-08-06 21:07:00,
2013-08-06 15:12:00,78.6,64.9,29.60,North,0,11.0,28.0,63,0.00,,,0.00,meteohub,2013-08-06 21:12:00,
2013-08-06 15:17:00,78.8,64.2,29.60,NE,45,27.0,28.0,61,0.00,,,0.00,meteohub,2013-08-06 21:17:00,
2013-08-06 15:22:00,78.3,64.6,29.60,NE,45,21.0,27.0,63,0.00,,,0.00,meteohub,2013-08-06 21:22:00,
2013-08-06 15:27:00,78.3,65.1,29.60,North,0,22.0,27.0,64,0.00,,,0.00,meteohub,2013-08-06 21:27:00,
2013-08-06 15:32:00,77.9,65.1,29.60,North,0,15.0,27.0,65,0.00,,,0.00,meteohub,2013-08-06 21:32:00,
2013-08-06 15:37:00,78.1,64.9,29.60,North,0,17.0,27.0,64,0.00,,,0.00,meteohub,2013-08-06 21:37:00,
2013-08-06 15:42:00,77.5,64.8,29.61,East,90,21.0,22.0,65,0.00,,,0.00,meteohub,2013-08-06 21:42:00,
2013-08-06 15:47:00,77.4,64.8,29.61,North,0,11.0,22.0,65,0.00,,,0.00,meteohub,2013-08-06 21:47:00,
2013-08-06 15:52:00,77.4,64.2,29.61,NE,45,18.0,23.0,64,0.00,,,0.00,meteohub,2013-08-06 21:52:00,
2013-08-06 15:57:00,76.8,65.5,29.61,NE,45,11.0,23.0,68,0.00,,,0.00,meteohub,2013-08-06 21:57:00,
2013-08-06 16:02:00,76.8,64.6,29.61,NE,45,19.0,23.0,66,0.00,,,0.00,meteohub,2013-08-06 22:02:00,
2013-08-06 16:08:00,76.3,64.9,29.62,North,0,25.0,25.0,68,0.00,,,0.00,meteohub,2013-08-06 22:08:00,
2013-08-06 16:13:00,75.4,64.9,29.62,NE,45,13.0,21.0,70,0.00,,,0.00,meteohub,2013-08-06 22:13:00,
2013-08-06 16:18:00,75.0,64.6,29.62,NE,45,15.0,25.0,70,0.00,,,0.00,meteohub,2013-08-06 22:18:00,
2013-08-06 16:23:00,74.5,64.4,29.62,North,0,13.0,25.0,71,0.00,,,0.00,meteohub,2013-08-06 22:23:00,
2013-08-06 16:28:00,74.3,64.2,29.62,NE,45,15.0,21.0,71,0.00,,,0.00,meteohub,2013-08-06 22:28:00,
2013-08-06 16:33:00,74.1,64.6,29.62,NE,45,16.0,21.0,72,0.00,,,0.00,meteohub,2013-08-06 22:33:00,
2013-08-06 16:38:00,73.9,64.8,29.62,East,90,13.0,21.0,73,0.00,,,0.00,meteohub,2013-08-06 22:38:00,
2013-08-06 16:43:00,73.8,64.6,29.62,NE,45,19.0,21.0,73,0.00,,,0.00,meteohub,2013-08-06 22:43:00,
2013-08-06 16:48:00,73.4,64.6,29.63,NE,45,16.0,19.0,74,0.00,,,0.00,meteohub,2013-08-06 22:48:00,
2013-08-06 16:53:00,73.4,64.6,29.62,NE,45,14.0,19.0,74,0.00,,,0.00,meteohub,2013-08-06 22:53:00,
2013-08-06 16:58:00,73.2,64.0,29.63,NE,45,11.0,19.0,73,0.00,,,0.00,meteohub,2013-08-06 22:58:00,
2013-08-06 17:03:00,73.0,64.2,29.64,NE,45,11.0,16.0,74,0.00,,,0.00,meteohub,2013-08-06 23:03:00,
2013-08-06 17:08:00,72.7,63.5,29.65,NE,45,8.0,17.0,73,0.00,,,0.00,meteohub,2013-08-06 23:08:00,
2013-08-06 17:09:00,72.3,63.1,29.65,NE,45,9.0,17.0,73,0.00,,,0.00,meteohub,2013-08-06 23:09:00,
2013-08-06 17:14:00,72.3,63.5,29.65,East,90,8.0,17.0,74,0.00,,,0.00,meteohub,2013-08-06 23:14:00,
2013-08-06 17:19:00,72.3,63.5,29.65,East,90,10.0,15.0,74,0.00,,,0.00,meteohub,2013-08-06 23:19:00,
2013-08-06 17:24:00,72.3,63.5,29.66,NE,45,13.0,14.0,74,0.00,,,0.00,meteohub,2013-08-06 23:24:00,
2013-08-06 17:29:00,72.0,63.7,29.66,NE,45,8.0,14.0,75,0.00,,,0.00,meteohub,2013-08-06 23:29:00,
2013-08-06 17:34:00,71.8,63.5,29.65,East,90,8.0,17.0,75,0.00,,,0.00,meteohub,2013-08-06 23:34:00,
2013-08-06 17:39:00,71.6,63.7,29.66,NE,45,10.0,17.0,76,0.00,,,0.00,meteohub,2013-08-06 23:39:00,
2013-08-06 17:44:00,71.6,63.3,29.67,East,90,11.0,17.0,75,0.00,,,0.00,meteohub,2013-08-06 23:44:00,
2013-08-06 17:50:00,71.4,64.2,29.67,NE,45,17.0,17.0,78,0.00,,,0.00,meteohub,2013-08-06 23:50:00,
2013-08-06 17:55:00,71.2,64.0,29.66,NE,45,9.0,16.0,78,0.00,,,0.00,meteohub,2013-08-06 23:55:00,
2013-08-06 18:00:00,71.2,64.0,29.67,East,90,10.0,17.0,78,0.00,,,0.00,meteohub,2013-08-07 00:00:00,
2013-08-06 18:05:00,71.1,64.2,29.67,NE,45,16.0,17.0,79,0.00,,,0.00,meteohub,2013-08-07 00:05:00,
2013-08-06 18:10:00,70.9,64.0,29.67,NE,45,15.0,17.0,79,0.00,,,0.00,meteohub,2013-08-07 00:10:00,
2013-08-06 18:15:00,70.7,64.2,29.67,NE,45,16.0,17.0,80,0.00,,,0.00,meteohub,2013-08-07 00:15:00,
2013-08-06 18:20:00,70.7,64.2,29.69,NE,45,17.0,17.0,80,0.00,,,0.00,meteohub,2013-08-07 00:20:00,
2013-08-06 18:25:00,70.7,63.9,29.69,NE,45,9.0,20.0,79,0.00,,,0.00,meteohub,2013-08-07 00:25:00,
2013-08-06 18:30:00,70.5,64.0,29.68,NE,45,13.0,20.0,80,0.00,,,0.00,meteohub,2013-08-07 00:30:00,
2013-08-06 18:35:00,70.5,64.0,29.69,NE,45,16.0,18.0,80,0.00,,,0.00,meteohub,2013-08-07 00:35:00,
2013-08-06 18:40:00,70.3,63.9,29.70,East,90,13.0,23.0,80,0.00,,,0.00,meteohub,2013-08-07 00:40:00,
2013-08-06 18:45:00,70.3,63.9,29.68,NE,45,11.0,23.0,80,0.00,,,0.00,meteohub,2013-08-07 00:45:00,
2013-08-06 18:50:00,70.3,64.2,29.68,NE,45,11.0,23.0,81,0.00,,,0.00,meteohub,2013-08-07 00:50:00,
2013-08-06 18:55:00,70.2,64.4,29.69,NE,45,15.0,17.0,82,0.00,,,0.00,meteohub,2013-08-07 00:55:00,
2013-08-06 19:00:00,70.0,64.2,29.69,NE,45,11.0,17.0,82,0.00,,,0.00,meteohub,2013-08-07 01:00:00,
2013-08-06 19:05:00,70.0,64.2,29.70,NE,45,14.0,17.0,82,0.00,,,0.00,meteohub,2013-08-07 01:05:00,
2013-08-06 19:10:00,70.0,64.2,29.70,NE,45,10.0,21.0,82,0.00,,,0.00,meteohub,2013-08-07 01:10:00,
2013-08-06 19:15:00,69.8,64.0,29.70,NE,45,9.0,21.0,82,0.00,,,0.00,meteohub,2013-08-07 01:15:00,
2013-08-06 19:20:00,69.8,64.0,29.69,NE,45,9.0,21.0,82,0.00,,,0.00,meteohub,2013-08-07 01:20:00,
2013-08-06 19:25:00,69.8,64.0,29.69,East,90,8.0,18.0,82,0.00,,,0.00,meteohub,2013-08-07 01:25:00,
2013-08-06 19:30:00,69.8,64.0,29.70,NE,45,14.0,16.0,82,0.00,,,0.00,meteohub,2013-08-07 01:30:00,
2013-08-06 19:35:00,69.6,64.2,29.68,East,90,9.0,15.0,83,0.00,,,0.00,meteohub,2013-08-07 01:35:00,
2013-08-06 19:40:00,69.6,64.2,29.69,NE,45,4.0,15.0,83,0.00,,,0.00,meteohub,2013-08-07 01:40:00,
2013-08-06 19:45:00,69.6,64.2,29.68,East,90,8.0,15.0,83,0.00,,,0.00,meteohub,2013-08-07 01:45:00,
2013-08-06 19:50:00,69.6,63.9,29.69,East,90,9.0,12.0,82,0.00,,,0.00,meteohub,2013-08-07 01:50:00,
2013-08-06 19:55:00,69.6,63.5,29.68,East,90,4.0,12.0,81,0.00,,,0.00,meteohub,2013-08-07 01:55:00,
2013-08-06 20:00:00,69.6,63.5,29.69,NE,45,6.0,12.0,81,0.00,,,0.00,meteohub,2013-08-07 02:00:00,
2013-08-06 20:05:00,69.4,63.3,29.68,NE,45,3.0,11.0,81,0.00,,,0.00,meteohub,2013-08-07 02:05:00,
2013-08-06 20:10:00,69.4,63.3,29.69,NE,45,5.0,8.0,81,0.00,,,0.00,meteohub,2013-08-07 02:10:00,
2013-08-06 20:15:00,69.3,63.1,29.68,NE,45,9.0,9.0,81,0.00,,,0.00,meteohub,2013-08-07 02:15:00,
2013-08-06 20:21:00,69.3,63.1,29.69,NE,45,9.0,9.0,81,0.00,,,0.00,meteohub,2013-08-07 02:21:00,
2013-08-06 20:26:00,69.3,63.1,29.69,East,90,8.0,11.0,81,0.00,,,0.00,meteohub,2013-08-07 02:26:00,
2013-08-06 20:31:00,69.3,62.8,29.70,East,90,8.0,11.0,80,0.00,,,0.00,meteohub,2013-08-07 02:31:00,
2013-08-06 20:36:00,69.1,63.0,29.70,NE,45,8.0,11.0,81,0.00,,,0.00,meteohub,2013-08-07 02:36:00,
2013-08-06 20:41:00,68.9,63.1,29.70,East,90,4.0,10.0,82,0.00,,,0.00,meteohub,2013-08-07 02:41:00,
2013-08-06 20:46:00,68.9,63.1,29.69,East,90,9.0,9.0,82,0.00,,,0.00,meteohub,2013-08-07 02:46:00,
2013-08-06 20:51:00,68.9,63.1,29.70,NE,45,9.0,9.0,82,0.00,,,0.00,meteohub,2013-08-07 02:51:00,
2013-08-06 20:56:00,68.7,63.0,29.69,East,90,8.0,12.0,82,0.00,,,0.00,meteohub,2013-08-07 02:56:00,
2013-08-06 21:01:00,68.7,61.9,29.70,NE,45,14.0,14.0,79,0.00,,,0.00,meteohub,2013-08-07 03:01:00,
2013-08-06 21:06:00,69.3,61.0,29.69,NE,45,15.0,15.0,75,0.00,,,0.00,meteohub,2013-08-07 03:06:00,
2013-08-06 21:11:00,69.4,60.8,29.70,NE,45,9.0,15.0,74,0.00,,,0.00,meteohub,2013-08-07 03:11:00,
2013-08-06 21:16:00,69.8,60.8,29.70,NE,45,8.0,15.0,73,0.00,,,0.00,meteohub,2013-08-07 03:16:00,
2013-08-06 21:21:00,69.6,61.3,29.71,East,90,11.0,15.0,75,0.00,,,0.00,meteohub,2013-08-07 03:21:00,
2013-08-06 21:26:00,69.4,61.9,29.70,East,90,4.0,13.0,77,0.00,,,0.00,meteohub,2013-08-07 03:26:00,
2013-08-06 21:31:00,69.4,62.2,29.71,East,90,10.0,13.0,78,0.00,,,0.00,meteohub,2013-08-07 03:31:00,
2013-08-06 21:36:00,69.1,62.2,29.71,NE,45,8.0,14.0,79,0.00,,,0.00,meteohub,2013-08-07 03:36:00,
2013-08-06 21:41:00,68.9,62.4,29.72,NE,45,11.0,14.0,80,0.00,,,0.00,meteohub,2013-08-07 03:41:00,
2013-08-06 21:46:00,68.9,62.1,29.72,North,0,8.0,14.0,79,0.00,,,0.00,meteohub,2013-08-07 03:46:00,
2013-08-06 21:51:00,68.9,62.1,29.72,NE,45,16.0,16.0,79,0.00,,,0.00,meteohub,2013-08-07 03:51:00,
2013-08-06 21:56:00,69.1,62.2,29.73,East,90,10.0,16.0,79,0.00,,,0.00,meteohub,2013-08-07 03:56:00,
2013-08-06 22:01:00,68.9,62.1,29.73,East,90,10.0,16.0,79,0.00,,,0.00,meteohub,2013-08-07 04:01:00,
2013-08-06 22:06:00,68.9,62.1,29.73,East,90,12.0,16.0,79,0.00,,,0.00,meteohub,2013-08-07 04:06:00,
2013-08-06 22:11:00,68.9,62.4,29.73,East,90,8.0,12.0,80,0.00,,,0.00,meteohub,2013-08-07 04:11:00,
2013-08-06 22:16:00,68.7,62.2,29.73,SE,135,8.0,14.0,80,0.00,,,0.00,meteohub,2013-08-07 04:16:00,
2013-08-06 22:21:00,68.7,61.9,29.73,East,90,4.0,14.0,79,0.00,,,0.00,meteohub,2013-08-07 04:21:00,
2013-08-06 22:26:00,68.7,61.9,29.74,ESE,113,9.0,10.0,79,0.00,,,0.00,meteohub,2013-08-07 04:26:00,
2013-08-06 22:31:00,68.7,62.2,29.74,East,90,13.0,13.0,80,0.00,,,0.00,meteohub,2013-08-07 04:31:00,
2013-08-06 22:37:00,68.7,62.6,29.74,East,90,11.0,13.0,81,0.00,,,0.00,meteohub,2013-08-07 04:37:00,
2013-08-06 22:42:00,68.7,62.6,29.73,NE,45,8.0,14.0,81,0.00,,,0.00,meteohub,2013-08-07 04:42:00,
2013-08-06 22:47:00,68.7,62.2,29.73,East,90,8.0,14.0,80,0.00,,,0.00,meteohub,2013-08-07 04:47:00,
2013-08-06 22:52:00,68.7,61.9,29.73,East,90,11.0,14.0,79,0.00,,,0.00,meteohub,2013-08-07 04:52:00,
2013-08-06 22:57:00,68.7,61.9,29.73,NE,45,11.0,14.0,79,0.00,,,0.00,meteohub,2013-08-07 04:57:00,
2013-08-06 23:02:00,68.7,61.2,29.73,East,90,13.0,14.0,77,0.00,,,0.00,meteohub,2013-08-07 05:02:00,
2013-08-06 23:07:00,68.7,61.2,29.73,NE,45,11.0,14.0,77,0.00,,,0.00,meteohub,2013-08-07 05:07:00,
2013-08-06 23:12:00,68.5,60.6,29.73,East,90,14.0,14.0,76,0.00,,,0.00,meteohub,2013-08-07 05:12:00,
2013-08-06 23:17:00,68.5,61.0,29.73,East,90,10.0,14.0,77,0.00,,,0.00,meteohub,2013-08-07 05:17:00,
2013-08-06 23:22:00,68.5,61.0,29.73,NE,45,15.0,15.0,77,0.00,,,0.00,meteohub,2013-08-07 05:22:00,
2013-08-06 23:27:00,68.5,61.3,29.72,NE,45,8.0,17.0,78,0.00,,,0.00,meteohub,2013-08-07 05:27:00,
2013-08-06 23:32:00,68.4,61.5,29.72,NE,45,15.0,17.0,79,0.00,,,0.00,meteohub,2013-08-07 05:32:00,
2013-08-06 23:37:00,68.2,62.1,29.72,East,90,16.0,17.0,81,0.00,,,0.00,meteohub,2013-08-07 05:37:00,
2013-08-06 23:42:00,68.0,61.9,29.72,NE,45,11.0,16.0,81,0.00,,,0.00,meteohub,2013-08-07 05:42:00,
2013-08-06 23:47:00,68.0,62.6,29.72,East,90,13.0,16.0,83,0.00,,,0.00,meteohub,2013-08-07 05:47:00,
2013-08-06 23:52:00,68.0,62.6,29.73,NE,45,15.0,16.0,83,0.00,,,0.00,meteohub,2013-08-07 05:52:00,
2013-08-06 23:57:00,68.0,62.6,29.72,East,90,19.0,21.0,83,0.00,,,0.00,meteohub,2013-08-07 05:57:00,